ATLAS CENTAUR 2

Last updated on Wed Nov 05 2025 00:02:13 GMT+0000 (Coordinated Universal Time)

1 00694U 63047A 25307.97000280 .00004034 00000+0 48839-3 0 9997 2 00694 30.3515 177.9554 0550212 52.7564 312.1951 14.11375583113847
UTC large
Height (km)
Speed (km/s)
/
Latitude / Longitude
Inclination (degrees)
Orbital Period (minutes)
Azimuth
Elevation
Range (km)
Doppler Factor

Next 0 passes for location: London (51.5072 / 0.1276)

Sorry there are no passes over London.